FW8702 Weather Reports


time (UTC)temp
C
wind
direction
speed
KPH
gust
KPH
rain 1hr
cm
rain 24hr
cm
rain mn
cm
humidity
%
barometer
mb
20260508211535 11 232 0.0 0.0 0.00 0.00 0.00 88 1018.7
20260508210035 12 232 0.0 0.0 0.00 0.00 0.00 87 1018.8
20260508204547 12 232 0.0 0.0 0.00 0.00 0.00 87 1018.7
20260508203013 12 232 0.0 0.0 0.00 0.00 0.00 86 1018.6
20260508201549 13 232 0.0 0.0 0.00 0.00 0.00 86 1018.5
20260508200045 13 232 0.0 0.0 0.00 0.00 0.00 84 1018.4
20260508194503 13 232 0.0 0.0 0.00 0.00 0.00 84 1018.1
20260508193103 13 231 0.0 0.0 0.00 0.00 0.00 83 1017.8
20260508191530 14 231 0.0 0.0 0.00 0.00 0.00 81 1017.6
20260508190030 15 231 0.0 0.0 0.00 0.00 0.00 80 1017.4
20260508184540 16 231 0.0 0.0 0.00 0.00 0.00 77 1017.1
20260508183003 17 231 0.0 0.0 0.00 0.00 0.00 72 1017.0
20260508181549 18 231 0.0 0.0 0.00 0.00 0.00 69 1017.1
20260508180104 18 231 0.0 0.0 0.00 0.00 0.00 67 1016.8
20260508174519 19 232 0.0 0.0 0.00 0.00 0.00 65 1016.7
20260508173048 20 148 0.0 0.0 0.00 0.00 0.00 61 1016.6
20260508171509 20 148 0.0 0.0 0.00 0.00 0.00 62 1016.7
20260508170026 19 127 0.0 0.0 0.00 0.00 0.00 61 1016.7
20260508164600 19 102 0.0 0.0 0.00 0.00 0.00 62 1016.7
20260508163001 20 94 0.0 3.2 0.00 0.00 0.00 61 1016.7
20260508161604 20 246 0.0 0.0 0.00 0.00 0.00 58 1016.6
20260508160036 20 246 0.0 1.6 0.00 0.00 0.00 64 1016.6
20260508154535 19 246 0.0 1.6 0.00 0.00 0.00 63 1016.6
20260508153105 19 149 0.0 1.6 0.00 0.00 0.00 61 1016.9
20260508151524 20 165 0.0 0.0 0.00 0.00 0.00 62 1016.8
20260508150023 20 204 0.0 1.6 0.00 0.00 0.00 66 1016.9
20260508144535 19 221 0.0 8.0 0.00 0.00 0.00 68 1017.2
20260508143049 18 140 0.0 9.7 0.00 0.00 0.00 69 1017.4
20260508141514 19 216 0.0 4.8 0.00 0.00 0.00 68 1017.2
20260508140115 18 216 0.0 8.0 0.00 0.00 0.00 65 1017.2
20260508134525 18 247 0.0 16.1 0.00 0.00 0.00 65 1017.2
20260508133054 18 267 0.0 19.3 0.00 0.00 0.00 63 1017.3
20260508131517 20 214 0.0 6.4 0.00 0.00 0.00 65 1017.3
20260508130016 19 276 0.0 12.9 0.00 0.00 0.00 68 1017.4
20260508124527 20 232 0.0 3.2 0.00 0.00 0.00 64 1017.2
20260508123057 20 233 0.0 3.2 0.00 0.00 0.00 66 1017.3
20260508121518 21 244 0.0 1.6 0.00 0.00 0.00 65 1017.5
20260508120038 21 229 0.0 1.6 0.00 0.00 0.00 66 1017.4
20260508114607 20 301 0.0 3.2 0.00 0.00 0.00 67 1017.4
20260508113013 20 209 0.0 8.0 0.00 0.00 0.00 66 1017.5
20260508111533 20 217 0.0 9.7 0.00 0.00 0.00 66 1017.7
20260508110021 20 244 0.0 1.6 0.00 0.00 0.00 67 1017.7
20260508104537 20 286 0.0 4.8 0.00 0.00 0.00 68 1018.0
20260508103004 19 296 0.0 3.2 0.00 0.00 0.00 68 1018.2
20260508101517 18 231 0.0 0.0 0.00 0.00 0.00 71 1018.3
20260508100027 18 243 0.0 9.7 0.00 0.00 0.00 70 1018.3
20260508094542 18 305 0.0 1.6 0.00 0.00 0.00 71 1018.2
20260508093036 18 156 0.0 0.0 0.00 0.00 0.00 71 1018.3
20260508091557 18 231 3.2 9.7 0.00 0.00 0.00 68 1018.4
20260508090059 17 232 0.0 1.6 0.00 0.00 0.00 71 1018.3
20260508084508 17 232 0.0 6.4 0.00 0.00 0.00 70 1018.2
20260508083025 17 284 0.0 1.6 0.00 0.00 0.00 71 1018.3
20260508081542 16 308 0.0 0.0 0.00 0.00 0.00 74 1018.3
20260508080054 16 312 0.0 0.0 0.00 0.00 0.00 75 1018.3
20260508074510 16 312 0.0 1.6 0.00 0.00 0.00 74 1018.1
20260508073039 17 268 0.0 1.6 0.00 0.00 0.00 76 1017.8
20260508071556 16 31 0.0 0.0 0.00 0.00 0.00 75 1017.9
20260508070010 16 235 0.0 0.0 0.00 0.03 0.00 76 1017.9
20260508064534 15 122 0.0 0.0 0.00 0.03 0.00 80 1017.8
20260508063051 14 121 0.0 0.0 0.00 0.03 0.00 82 1017.8
20260508061519 13 121 0.0 0.0 0.00 0.03 0.00 83 1017.5
20260508060033 12 121 0.0 1.6 0.00 0.03 0.00 88 1017.4
20260508054604 12 123 0.0 0.0 0.00 0.03 0.00 89 1017.3
20260508053011 11 124 0.0 3.2 0.00 0.03 0.00 89 1017.3
20260508051529 11 125 0.0 0.0 0.00 0.03 0.00 89 1017.2
20260508050032 11 125 0.0 0.0 0.00 0.03 0.00 90 1017.1
20260508044541 11 125 0.0 0.0 0.00 0.03 0.00 91 1017.1
20260508043005 10 125 0.0 0.0 0.00 0.03 0.00 90 1017.0
20260508041514 10 125 0.0 0.0 0.00 0.03 0.00 89 1016.8
20260508040021 11 124 0.0 0.0 0.00 0.03 0.00 89 1016.9
20260508034530 10 124 0.0 0.0 0.00 0.03 0.00 89 1016.9
20260508033056 10 124 0.0 0.0 0.00 0.03 0.00 89 1016.9
20260508031527 10 79 0.0 1.6 0.00 0.03 0.00 90 1016.7
20260508030017 10 308 0.0 0.0 0.00 0.03 0.00 90 1016.3
20260508024549 10 302 0.0 0.0 0.00 0.03 0.00 91 1016.3
20260508023022 10 277 0.0 0.0 0.00 0.03 0.00 91 1016.2
20260508021525 10 277 0.0 0.0 0.00 0.03 0.00 91 1016.2
20260508020007 10 277 0.0 0.0 0.00 0.03 0.00 91 1016.3
20260508014546 10 277 0.0 0.0 0.00 0.03 0.00 91 1016.4
20260508013046 10 277 0.0 0.0 0.00 0.03 0.00 90 1016.4
20260508011503 10 276 0.0 0.0 0.00 0.03 0.00 90 1016.3
20260508010003 10 276 0.0 0.0 0.00 0.05 0.00 90 1016.3
20260508004530 10 276 0.0 0.0 0.00 0.05 0.00 90 1016.3
20260508003057 10 276 0.0 0.0 0.00 0.05 0.00 90 1016.4
20260508001508 10 276 0.0 0.0 0.00 0.05 0.00 90 1016.3
20260508000052 10 276 0.0 0.0 0.00 0.05 0.00 89 1016.4
20260507234517 10 276 0.0 0.0 0.00 0.10 0.00 89 1016.3
20260507233047 10 276 0.0 0.0 0.00 0.10 0.00 89 1016.3
20260507231512 11 276 0.0 0.0 0.00 0.10 0.00 89 1016.3
20260507230015 11 276 0.0 0.0 0.00 0.13 0.00 89 1016.4
20260507224528 11 276 0.0 0.0 0.00 0.13 0.00 89 1016.3
20260507223051 11 277 0.0 0.0 0.00 0.13 0.00 88 1016.4
20260507221508 11 161 0.0 0.0 0.00 0.13 0.00 89 1016.4
20260507220012 11 240 0.0 0.0 0.00 0.25 0.13 88 1016.2
20260507214538 11 240 0.0 0.0 0.00 0.25 0.13 88 1016.0
20260507213046 12 240 0.0 0.0 0.00 0.25 0.13 87 1015.7